SCP
1 1 2 1 2 1 1 1 2 1 1 1 1 1 0 0 0 0 0 0 0 0
1 2 2 3 2 1 2 1 1 1 1 1 1 0 0 0 0 0 0 0 0 0
1 1 2 1 1 1 1 1 1 1 1 0 0 0 0 0 0 0 0 0 0 0
1 1 1 1 1 1 1 1 0 0 0 0 0 0 0 0 0 0 0 0 0 0
1 0 1 1 0 0 0 0 0 0 0 0 0 0 0 0 0 0 0 0 0 0
0 0 0 0 0 0 0 0 0 0 0 0 0 0 0 0 0 0 0 0 0 0
0 0 0 0 0 0 0 0 0 0 0 0 0 0 0 0 0 0 0 0 0 0
0 0 0 0 0 0 0 0 0 0 0 0 0 0 0 0 0 -0 0 0 0 0
0 0 0 0 0 0 0 0 0 0 0 0 0 0 0 0 -0 0 0 0 0 0
0 0 0 0 0 0 0 0 0 0 0 0 0 0 0 0 0 0 0 0 0 0
0 0 0 0 0 0 0 0 0 0 0 0 0 0 0 0 0 0 0 0 0 0
0 0 0 0 0 0 0 0 0 0 0 0 0 0 0 0 0 0 0 0 0 0
0 0 0 0 0 0 0 0 0 0 0 0 -0 0 0 0 0 0 0 0 0 0
0 0 0 0 0 0 0 0 0 0 0 0 -0 0 0 0 0 0 0 0 0 0
Wind_Speed_500mb
41 40 39 38 36 33 31 31 35 35 28 28 27 27 24 23 18 14 18 16 19 26
43 43 38 41 41 35 33 31 27 29 26 25 26 23 19 16 15 18 14 22 23 23
44 41 41 37 38 37 33 28 27 27 25 26 20 22 20 16 13 13 20 18 19 21
43 40 39 39 34 33 30 29 26 25 23 23 24 22 20 17 14 16 18 14 20 17
43 41 39 35 32 29 27 26 24 23 23 22 20 20 18 15 18 18 14 18 17 19
42 39 36 33 30 28 26 24 24 24 23 25 24 20 16 18 15 13 15 16 12 15
40 37 34 30 27 27 25 25 25 24 23 21 19 17 19 16 12 15 11 9 7 11
37 35 32 29 28 29 27 27 24 22 21 23 23 19 16 14 15 13 12 13 12 2
36 34 31 28 30 31 26 23 26 28 25 21 22 22 23 17 15 15 16 10 8 5
35 33 31 27 26 31 29 27 28 28 25 26 22 17 14 13 16 20 13 13 13 8
34 31 29 27 26 30 32 29 28 30 25 20 20 15 9 12 13 14 11 15 9 8
33 31 28 26 26 25 30 30 28 26 24 19 19 13 9 15 11 12 12 9 14 11
31 28 26 28 23 26 28 30 29 27 23 21 19 17 14 17 15 10 14 6 8 10
31 27 25 22 21 23 25 28 29 27 22 17 18 21 16 22 15 11 10 8 4 7
Wind_Direction_500mb
183 182 182 168 177 175 180 184 197 186 193 199 215 216 224 235 230 218 227 218 221 225
171 174 173 174 171 172 172 178 185 187 201 202 212 211 225 224 204 231 224 219 231 223
166 163 165 166 158 164 167 174 180 188 200 204 208 210 212 211 229 214 220 236 237 235
160 162 160 155 161 164 167 172 179 190 203 205 207 207 202 199 206 213 232 205 238 246
156 155 154 158 162 165 168 178 184 192 195 194 196 192 194 203 208 220 225 230 251 236
152 154 155 159 165 169 173 176 180 183 187 190 195 194 195 202 212 216 231 236 234 225
155 157 157 160 163 166 170 170 175 177 185 177 180 188 198 202 207 222 217 193 200 236
156 153 153 158 162 169 168 178 177 169 163 178 189 183 199 206 215 198 169 190 127 146
154 154 155 161 170 168 167 172 164 173 170 169 178 195 209 221 188 171 190 168 144 89
155 157 159 165 167 171 174 174 173 176 175 176 182 184 191 188 162 191 179 162 178 124
157 159 163 168 176 175 181 178 176 174 171 169 175 186 185 181 180 168 178 178 193 177
161 162 167 172 182 181 184 174 169 163 166 161 183 189 181 162 165 176 152 172 193 204
160 162 168 171 172 186 176 171 162 166 170 175 188 197 179 170 161 154 143 159 191 211
157 158 163 167 173 168 166 170 167 170 173 176 199 202 203 187 160 161 161 178 188 213
Wind_Speed_850mb
41 40 39 38 36 33 31 31 35 35 28 28 27 27 24 23 18 14 18 16 19 26
43 43 38 41 41 35 33 31 27 29 26 25 26 23 19 16 15 18 14 22 23 23
44 41 41 37 38 37 33 28 27 27 25 26 20 22 20 16 13 13 20 18 19 21
43 40 39 39 34 33 30 29 26 25 23 23 24 22 20 17 14 16 18 14 20 17
43 41 39 35 32 29 27 26 24 23 23 22 20 20 18 15 18 18 14 18 17 19
42 39 36 33 30 28 26 24 24 24 23 25 24 20 16 18 15 13 15 16 12 15
40 37 34 30 27 27 25 25 25 24 23 21 19 17 19 16 12 15 11 9 7 11
37 35 32 29 28 29 27 27 24 22 21 23 23 19 16 14 15 13 12 13 12 2
36 34 31 28 30 31 26 23 26 28 25 21 22 22 23 17 15 15 16 10 8 5
35 33 31 27 26 31 29 27 28 28 25 26 22 17 14 13 16 20 13 13 13 8
34 31 29 27 26 30 32 29 28 30 25 20 20 15 9 12 13 14 11 15 9 8
33 31 28 26 26 25 30 30 28 26 24 19 19 13 9 15 11 12 12 9 14 11
31 28 26 28 23 26 28 30 29 27 23 21 19 17 14 17 15 10 14 6 8 10
31 27 25 22 21 23 25 28 29 27 22 17 18 21 16 22 15 11 10 8 4 7
Wind_Direction_850mb
183 182 182 168 177 175 180 184 197 186 193 199 215 216 224 235 230 218 227 218 221 225
171 174 173 174 171 172 172 178 185 187 201 202 212 211 225 224 204 231 224 219 231 223
166 163 165 166 158 164 167 174 180 188 200 204 208 210 212 211 229 214 220 236 237 235
160 162 160 155 161 164 167 172 179 190 203 205 207 207 202 199 206 213 232 205 238 246
156 155 154 158 162 165 168 178 184 192 195 194 196 192 194 203 208 220 225 230 251 236
152 154 155 159 165 169 173 176 180 183 187 190 195 194 195 202 212 216 231 236 234 225
155 157 157 160 163 166 170 170 175 177 185 177 180 188 198 202 207 222 217 193 200 236
156 153 153 158 162 169 168 178 177 169 163 178 189 183 199 206 215 198 169 190 127 146
154 154 155 161 170 168 167 172 164 173 170 169 178 195 209 221 188 171 190 168 144 89
155 157 159 165 167 171 174 174 173 176 175 176 182 184 191 188 162 191 179 162 178 124
157 159 163 168 176 175 181 178 176 174 171 169 175 186 185 181 180 168 178 178 193 177
161 162 167 172 182 181 184 174 169 163 166 161 183 189 181 162 165 176 152 172 193 204
160 162 168 171 172 186 176 171 162 166 170 175 188 197 179 170 161 154 143 159 191 211
157 158 163 167 173 168 166 170 167 170 173 176 199 202 203 187 160 161 161 178 188 213